Flag for Brazil Weather past 2 weeks in Ilhéus, Bahia, Brazil

Now
82 °F

Passing clouds.


Feels Like: 85 °F
Forecast: 69 / 83 °F
Wind: 12 mph from Southeast

Location: Salvador Aeroporto

Current Time: Oct 22, 2014 at 10:02:35 AM

Latest Report: Oct 22, 2014 at 9:00 AM


Visibility: N/A

Pressure: 30.04 "Hg

Humidity: 58%

Dew point: 66 °F

Location of IlhéusLocation

Historic Weather in Ilhéus — Graph

°F

Ilhéus temperature yesterday

Maximum temperature yesterday: 84 °F (at 12:00 PM)
Minimum temperature yesterday: 77 °F (at 12:00 AM)
Average temperature yesterday: 79 °F

Past Weeks' High & Low Weather Summary

 TemperatureHumidityPressure
High84 °F (Oct 14, 3:00 PM)89% (Oct 12, 8:00 AM)30.15 "Hg (Oct 12, 8:00 AM)
Low72 °F (Oct 15, 5:00 AM)48% (Oct 7, 2:00 PM)29.86 "Hg (Oct 20, 2:00 PM)
Average78 °F71%30.02 "Hg
* Reported Oct 7 9:00 AM — Oct 22 9:00 AM, Ilhéus, Weather by CustomWeather, © 2014

Note: Actual official high and low records may vary slightly from our data, if they occured in-between our weather recording intervals... More about our weather records

Advertising

Ilhéus weather history for previous 24 hours

 ConditionsComfort  
Time TempWeatherWind HumidityBarometerVisibility
9:00 AM
Oct 22
82 °FPassing clouds.12 mph58%30.04 "HgN/A
8:00 AM81 °FPassing clouds.12 mph62%30.04 "HgN/A
7:00 AM79 °FPassing clouds.12 mph65%30.01 "HgN/A
6:00 AM77 °FPassing clouds.8 mph69%29.98 "HgN/A
5:00 AM77 °FPartly cloudy.8 mph69%29.98 "HgN/A
4:00 AM75 °FPassing clouds.7 mph78%29.95 "HgN/A
3:00 AM77 °FPassing clouds.9 mph69%29.95 "HgN/A
1:00 AM77 °FPassing clouds.9 mph74%29.98 "HgN/A
12:00 AM77 °FPassing clouds.8 mph74%29.98 "HgN/A
11:00 PM
Oct 21
77 °FPassing clouds.9 mph74%29.98 "HgN/A
10:00 PM77 °FPassing clouds.7 mph74%30.01 "HgN/A
9:00 PM77 °FPassing clouds.8 mph74%29.98 "HgN/A
8:00 PM77 °FPassing clouds.10 mph74%29.98 "HgN/A
7:00 PM77 °FPassing clouds.10 mph74%29.98 "HgN/A
6:00 PM77 °FScattered clouds.12 mph74%29.95 "HgN/A
5:00 PM79 °FPassing clouds.12 mph70%29.92 "HgN/A
4:00 PM81 °FPassing clouds.15 mph66%29.92 "HgN/A
3:00 PM81 °FPassing clouds.14 mph66%29.92 "HgN/A
2:00 PM82 °FScattered clouds.16 mph66%29.92 "HgN/A
1:00 PM82 °FPassing clouds.15 mph62%29.95 "HgN/A
12:00 PM84 °FScattered clouds.14 mph62%29.98 "HgN/A
11:00 AM82 °FBroken clouds.15 mph66%30.01 "HgN/A
10:00 AM82 °FScattered clouds.15 mph66%30.01 "HgN/A
Weather by CustomWeather, © 2014

See weather overviewHow to use our weather pages